Location: Avoca
(45.7167°N, 74.7000°W)
Time: 18:27:26
(UTC+00:00)

Tiangong - Pass Details

Date: 07 December 2022
Orbit: 383 x 386 km, 41.5° (Epoch: 30 January)

Event Time Altitude Azimuth Distance (km) Brightness Sun altitude
Rises 22:53:39 0° 265° (W) 2,256 3.4 -16.6°
Reaches altitude 10° 22:55:50 10° 255° (WSW) 1,403 2.0 -16.9°
Maximum altitude 22:58:42 31° 191° (S) 698 -0.6 -17.4°
Enters shadow 22:59:53 23° 149° (SSE) 866 -0.5 -17.6°
